Tracking 18850 objects as of 21-Nov-2017
HD Live streaming from Space Station
objects crossing your sky now

COSMOS 402

Track COSMOS 402 now!
10-day predictions
COSMOS 402 is classified as:


NORAD ID: 5105
Int'l Code: 1971-025A
Perigee: 958.2 km
Apogee: 1,033.4 km
Inclination: 65.0 °
Period: 104.9 minutes
Semi major axis: 7366 km
RCS: 3.1116 m2 (large)
Launch date: April 1, 1971
Source: Commonwealth of Independent States (former USSR) (CIS)
Launch site: TYURATAM MISSILE AND SPACE COMPLEX (TTMTR)
aabbcc
Your satellite tracking list
Your tracking list is empty




NASA's NSSDC Master Catalog

Two Line Element Set (TLE):
1 05105U 71025A   17325.19827806 -.00000082  00000-0  44087-5 0  9994
2 05105  64.9812 289.2168 0051030 216.2436 231.0971 13.73045769338284
Source of the keplerian elements: AFSPC